Wind_Speed
7 7 6 7 8 7 7 7 8 9 10 10 10 10 10 10 10 10 9 9 9 9 10 10 10 9 9 9 10 10 10 10 10 9 9 10 10 10 11 11 11 12 12
7 7 6 6 6 7 8 8 8 9 10 10 10 10 10 10 9 9 8 8 9 9 9 8 8 8 8 7 8 8 9 8 9 9 9 9 9 10 10 11 11 11 12
7 7 6 6 6 6 7 8 9 9 9 9 9 9 10 9 9 8 8 8 8 8 8 7 7 7 7 7 7 7 8 8 8 8 8 9 9 9 10 10 10 11 12
6 7 7 6 7 7 7 8 8 8 8 7 8 8 9 9 9 8 8 7 7 7 7 6 6 6 6 6 6 6 6 7 7 8 9 9 8 8 9 9 10 10 11
7 7 6 6 6 6 6 7 7 6 7 7 7 7 7 8 8 8 8 7 7 7 7 7 7 7 6 6 6 6 6 6 6 7 7 7 7 7 8 8 9 9 10
7 7 6 6 5 5 6 6 6 6 6 7 7 7 7 8 8 8 7 8 8 7 7 7 8 7 8 8 6 6 6 6 6 6 6 6 6 7 8 8 9 10 9
8 8 8 7 7 7 7 7 7 7 7 7 7 7 7 8 7 8 8 8 7 7 7 8 8 9 8 8 7 7 6 6 6 6 6 6 7 7 8 9 9 9 9
8 7 8 8 8 8 8 8 7 8 8 8 8 8 8 8 8 8 8 7 7 7 8 8 8 9 8 8 7 7 7 7 7 7 6 7 8 8 8 9 9 9 9
8 8 9 9 9 8 8 8 8 8 8 7 8 8 8 8 8 7 8 7 7 7 7 8 8 8 8 8 8 8 8 8 7 7 7 8 9 9 9 9 10 10 10
9 9 9 10 10 9 8 8 8 8 8 8 7 7 7 7 8 8 8 7 7 7 7 7 7 8 8 8 8 7 8 8 8 8 8 9 9 10 9 10 10 10 10
9 9 10 11 10 10 9 8 8 8 8 7 7 7 7 7 8 8 8 8 8 8 8 8 8 8 9 9 9 8 8 8 9 9 9 9 10 10 10 10 10 10 10
10 10 10 11 10 10 10 9 9 9 8 8 7 7 8 8 8 8 8 8 9 9 9 9 9 9 9 9 9 8 8 9 9 9 9 9 10 10 9 10 10 10 9
12 11 11 11 12 12 11 10 10 9 9 9 8 8 9 9 8 8 8 9 9 9 9 9 9 9 9 9 8 8 8 8 9 9 9 8 9 9 9 9 9 9 9
12 12 12 12 12 12 12 12 12 11 11 10 10 9 9 9 9 9 9 9 9 9 8 9 9 9 9 8 8 8 8 9 9 8 8 8 9 9 9 8 8 9 9
13 13 12 12 12 12 13 13 12 12 12 11 11 11 10 10 10 10 9 9 9 8 8 9 9 9 8 7 8 8 8 8 9 8 8 8 9 9 8 9 9 8 9
13 13 13 13 13 13 13 13 13 13 12 13 12 12 11 11 10 10 9 9 10 9 9 9 9 8 8 8 8 8 8 8 9 9 10 10 10 9 9 9 9 9 9
14 14 14 14 13 14 14 14 14 14 13 13 13 13 12 12 11 11 11 11 10 10 10 10 9 9 8 8 8 8 8 9 9 9 10 10 10 9 9 10 10 10 10
15 15 15 15 15 15 15 15 15 15 14 14 14 14 14 13 13 13 12 11 11 11 10 10 10 9 9 9 8 9 9 9 9 9 10 10 10 10 11 11 11 11 11
17 17 16 16 16 16 16 16 16 17 17 16 16 16 16 15 14 14 13 12 12 12 11 11 11 10 10 9 9 9 9 10 10 10 10 10 11 11 11 12 12 12 12
18 18 18 17 17 17 17 17 17 18 18 17 17 17 16 16 15 15 14 14 13 13 12 12 12 11 11 11 11 11 11 11 11 11 11 11 11 11 12 12 12 13 13
19 20 19 19 19 19 18 18 18 18 19 19 18 18 18 17 17 16 16 15 14 14 14 13 13 12 12 12 12 12 12 12 12 12 12 12 12 12 12 13 13 14 15
21 20 21 21 21 20 20 19 20 20 20 20 20 19 19 18 18 18 17 16 16 16 15 14 14 14 14 14 14 14 14 14 14 13 14 14 14 14 14 14 15 15 16
23 22 22 22 22 22 23 22 22 22 22 22 21 20 20 19 19 18 18 18 17 16 16 16 16 16 16 16 15 15 15 15 15 15 16 16 16 16 15 15 16 16 16
24 24 23 24 24 23 24 24 23 22 22 22 22 21 21 20 20 20 19 19 18 18 18 17 17 17 17 17 16 17 17 17 17 17 17 17 17 17 17 16 17 17 17
25 25 25 25 25 24 24 24 24 23 23 23 23 23 22 22 22 22 21 21 21 20 20 20 19 19 19 18 18 18 18 18 18 18 17 17 18 18 17 17 17 18 18
26 27 26 26 26 26 25 24 24 24 24 24 24 24 24 23 23 23 23 22 22 22 22 21 21 21 21 20 20 19 19 19 19 19 19 19 18 18 18 18 18 19 19
Wind_Direction
274 268 272 273 273 271 269 270 272 269 270 268 267 267 267 270 275 276 274 275 276 277 276 272 269 271 272 271 273 276 277 278 276 275 275 277 281 283 283 283 280 279 279
269 271 271 274 274 269 270 274 275 273 273 273 269 267 266 269 271 277 278 277 277 277 279 276 273 272 274 271 273 274 277 280 277 276 279 280 282 284 284 285 284 282 282
272 270 268 265 268 269 269 273 274 272 273 269 269 268 267 269 273 275 277 275 276 278 278 272 276 278 280 275 271 274 276 281 281 283 286 285 283 286 287 287 288 287 283
268 266 261 256 263 268 271 272 274 272 275 274 272 271 270 268 271 276 276 274 274 273 272 267 271 278 287 288 277 274 280 286 284 284 287 286 285 290 291 292 291 290 286
266 261 253 254 260 264 271 274 279 277 280 278 277 275 273 270 269 273 275 274 273 272 273 267 268 274 281 290 284 272 278 286 284 280 283 283 288 291 293 295 295 294 295
262 253 253 257 261 267 271 277 278 277 283 281 278 275 273 273 272 272 274 274 269 268 269 267 268 274 282 288 290 280 283 284 282 282 282 284 290 292 295 296 297 297 300
258 253 257 261 265 268 270 276 276 278 280 280 276 275 272 272 276 276 274 271 266 265 266 269 269 273 277 284 286 286 284 280 277 280 284 288 292 293 296 297 297 298 302
260 251 258 264 265 265 263 270 274 276 280 278 275 277 275 274 277 275 272 268 265 266 267 270 270 270 274 278 284 287 289 286 279 283 284 291 296 297 298 298 299 302 303
262 255 260 263 265 265 264 266 270 273 278 276 276 276 276 273 272 272 271 270 271 271 271 273 271 269 272 277 282 290 292 290 285 287 291 297 297 297 297 298 301 302 303
263 264 266 262 261 260 261 263 269 273 276 276 276 274 275 275 274 273 273 268 267 274 277 275 269 268 272 278 282 288 293 291 290 288 292 297 300 298 299 300 302 301 303
267 266 271 264 257 256 258 260 262 267 272 272 273 272 273 275 275 276 274 270 270 273 275 272 267 270 273 275 278 281 286 288 288 289 294 296 298 300 301 304 304 304 305
266 265 270 263 255 254 256 257 256 260 262 266 270 271 273 276 277 274 271 268 270 272 272 269 267 273 273 272 274 277 282 286 286 288 291 293 296 297 299 308 309 306 307
266 266 265 264 256 255 257 256 258 257 259 262 266 270 275 277 275 272 272 274 274 273 273 268 268 270 271 270 272 276 279 283 287 292 296 296 298 300 303 307 307 303 305
268 268 265 262 259 257 256 257 257 257 258 262 265 269 273 274 275 272 272 273 275 274 271 268 266 268 267 267 272 276 279 285 287 289 293 296 297 301 304 306 305 305 306
266 265 262 258 258 259 257 253 253 253 258 264 269 270 269 271 272 271 271 273 276 273 271 271 267 266 268 272 278 278 281 286 283 282 290 294 293 297 301 303 303 302 306
263 262 260 258 258 259 258 252 252 253 257 262 264 265 266 265 266 270 272 274 272 271 271 272 269 266 266 274 281 282 282 283 282 282 286 291 291 292 295 299 299 303 307
262 263 263 261 260 257 256 252 251 253 256 258 259 260 263 262 262 266 270 271 270 269 268 269 266 264 262 272 279 279 279 281 283 284 288 290 291 294 294 296 297 298 303
262 262 262 261 260 258 257 253 250 251 254 255 256 259 262 263 263 265 267 268 267 267 266 265 265 262 261 267 272 274 275 279 286 289 291 294 292 291 292 297 297 298 300
263 261 260 260 260 259 258 257 252 252 252 253 254 255 258 260 262 263 265 264 264 265 265 265 264 261 263 265 269 273 275 277 283 288 292 296 297 294 295 298 297 296 298
264 261 260 260 259 258 258 258 256 253 252 252 252 253 254 257 260 261 262 262 260 262 262 263 262 262 262 264 268 272 275 277 280 285 290 294 297 297 297 298 299 298 297
264 263 261 259 260 258 258 259 256 254 253 253 253 252 252 254 257 258 259 258 257 259 261 262 262 264 264 266 269 271 274 275 276 280 286 291 296 297 297 298 300 299 298
266 266 263 260 260 260 258 258 258 255 254 253 253 253 253 254 255 256 255 256 256 258 259 261 262 264 266 268 270 271 272 273 275 278 283 287 291 295 296 296 297 298 301
266 265 263 262 260 260 259 258 258 257 255 252 252 252 253 253 253 255 255 255 256 257 259 262 263 264 265 267 269 269 269 271 274 276 279 282 286 290 292 294 295 298 298
265 263 263 261 260 261 260 257 257 256 253 251 249 250 252 254 254 256 254 254 255 256 257 260 263 264 265 265 267 268 269 271 274 277 279 281 284 288 290 290 293 296 298
264 262 262 262 260 260 259 256 255 254 253 250 249 250 253 254 255 256 254 253 255 256 257 259 262 264 265 266 266 266 267 270 272 275 277 279 283 286 288 289 291 293 296
264 263 261 260 258 257 256 255 254 253 253 252 251 250 252 254 256 256 255 253 255 256 258 261 263 264 264 265 266 266 267 269 271 273 276 278 282 285 287 289 292 293 294
Height
5849 5849 5849 5849 5849 5849 5849 5849 5849 5849 5849 5849 5849 5849 5850 5850 5850 5850 5850 5849 5849 5849 5848 5848 5848 5848 5848 5848 5848 5848 5847 5847 5847 5847 5847 5847 5847 5847 5847 5846 5846 5846 5845
5847 5847 5847 5847 5847 5847 5847 5847 5847 5847 5847 5847 5847 5847 5847 5848 5848 5848 5847 5847 5847 5847 5846 5846 5845 5845 5846 5845 5845 5845 5846 5845 5845 5845 5845 5845 5845 5845 5844 5844 5844 5843 5843
5845 5846 5846 5846 5846 5845 5845 5845 5845 5845 5845 5845 5845 5845 5845 5846 5846 5846 5845 5845 5845 5844 5844 5844 5844 5844 5844 5843 5843 5844 5844 5843 5843 5843 5843 5843 5843 5842 5842 5842 5841 5840 5840
5844 5844 5844 5844 5844 5844 5844 5844 5844 5844 5843 5843 5843 5843 5843 5844 5844 5844 5843 5843 5843 5843 5842 5842 5842 5842 5842 5842 5842 5842 5842 5842 5841 5841 5841 5841 5841 5840 5840 5839 5839 5838 5837
5842 5842 5842 5842 5843 5843 5843 5843 5842 5842 5842 5842 5841 5842 5842 5842 5842 5842 5841 5841 5841 5841 5841 5841 5841 5841 5841 5840 5840 5840 5840 5840 5840 5840 5840 5839 5839 5838 5838 5837 5837 5836 5835
5841 5840 5841 5841 5841 5841 5841 5841 5841 5841 5840 5840 5840 5840 5840 5840 5840 5840 5839 5839 5839 5839 5839 5839 5839 5839 5839 5839 5839 5839 5839 5838 5838 5838 5838 5838 5837 5837 5836 5835 5835 5834 5833
5839 5839 5839 5839 5840 5840 5840 5840 5840 5840 5839 5839 5839 5839 5839 5839 5838 5838 5838 5837 5837 5837 5837 5838 5838 5838 5838 5837 5837 5837 5837 5837 5837 5837 5836 5836 5836 5835 5834 5834 5833 5832 5831
5837 5838 5838 5838 5838 5838 5838 5838 5838 5838 5838 5838 5838 5837 5837 5838 5837 5836 5836 5836 5836 5836 5836 5836 5836 5836 5836 5836 5836 5836 5836 5836 5835 5835 5835 5834 5834 5833 5833 5832 5831 5830 5828
5836 5836 5836 5836 5836 5836 5836 5836 5837 5837 5836 5836 5836 5836 5836 5835 5835 5835 5835 5834 5834 5834 5834 5834 5834 5834 5834 5834 5834 5834 5834 5834 5834 5833 5833 5833 5832 5831 5830 5829 5828 5827 5826
5834 5834 5834 5834 5834 5834 5834 5834 5834 5835 5835 5834 5834 5834 5834 5834 5834 5833 5833 5833 5833 5833 5833 5832 5832 5833 5833 5833 5833 5833 5833 5832 5832 5832 5831 5831 5830 5829 5828 5827 5826 5824 5823
5832 5832 5832 5831 5832 5832 5832 5832 5832 5832 5833 5833 5833 5833 5832 5832 5832 5832 5831 5831 5831 5831 5831 5831 5831 5831 5831 5831 5831 5831 5831 5830 5830 5829 5829 5828 5828 5827 5826 5825 5824 5822 5821
5829 5829 5829 5829 5829 5830 5830 5830 5830 5830 5830 5831 5831 5831 5830 5830 5830 5830 5829 5829 5829 5829 5829 5828 5828 5828 5828 5829 5829 5828 5828 5828 5828 5827 5827 5826 5825 5824 5824 5823 5821 5820 5819
5826 5826 5827 5826 5827 5827 5827 5827 5828 5828 5828 5828 5828 5828 5828 5828 5828 5828 5828 5827 5827 5827 5827 5827 5826 5827 5827 5827 5826 5826 5826 5826 5825 5825 5824 5823 5823 5822 5821 5820 5819 5818 5817
5823 5823 5823 5823 5824 5824 5824 5825 5825 5825 5825 5826 5826 5826 5826 5826 5826 5826 5826 5825 5825 5825 5825 5825 5825 5824 5825 5825 5825 5824 5824 5824 5823 5823 5822 5822 5821 5820 5819 5818 5817 5816 5815
5819 5820 5820 5820 5821 5821 5821 5822 5822 5822 5823 5823 5823 5823 5823 5823 5824 5824 5823 5823 5823 5823 5823 5823 5822 5822 5822 5822 5822 5822 5822 5822 5821 5821 5820 5820 5819 5818 5817 5816 5815 5815 5813
5816 5816 5817 5817 5817 5818 5818 5818 5819 5819 5820 5820 5820 5821 5821 5821 5821 5821 5821 5821 5821 5821 5821 5820 5820 5820 5820 5820 5820 5820 5820 5820 5819 5819 5818 5817 5817 5816 5815 5815 5813 5812 5811
5811 5812 5813 5813 5813 5814 5814 5814 5815 5816 5816 5817 5817 5818 5818 5818 5818 5818 5818 5818 5818 5818 5818 5818 5818 5818 5818 5818 5818 5818 5818 5817 5817 5816 5816 5815 5814 5813 5813 5812 5811 5810 5809
5807 5807 5808 5809 5809 5809 5810 5810 5811 5812 5812 5813 5814 5814 5814 5815 5815 5815 5815 5815 5815 5815 5816 5816 5816 5816 5816 5816 5816 5816 5815 5815 5814 5814 5813 5812 5811 5811 5810 5809 5808 5807 5806
5802 5802 5803 5804 5804 5805 5805 5806 5807 5807 5808 5809 5809 5810 5810 5811 5811 5812 5812 5812 5812 5812 5813 5813 5813 5813 5813 5813 5813 5813 5813 5812 5812 5811 5810 5809 5809 5808 5807 5806 5805 5803 5802
5796 5797 5798 5798 5799 5800 5800 5801 5802 5802 5803 5804 5805 5806 5806 5807 5807 5808 5808 5808 5809 5809 5810 5810 5810 5810 5810 5810 5810 5810 5810 5809 5809 5808 5807 5807 5806 5805 5804 5802 5801 5800 5799
5791 5791 5792 5793 5794 5794 5795 5796 5796 5797 5798 5799 5800 5801 5801 5802 5803 5803 5804 5804 5805 5805 5806 5806 5807 5807 5807 5807 5807 5807 5806 5806 5805 5805 5804 5804 5803 5802 5800 5799 5798 5797 5795
5784 5785 5785 5786 5787 5788 5789 5789 5790 5791 5792 5793 5795 5795 5796 5797 5798 5799 5799 5800 5801 5801 5802 5802 5803 5803 5803 5803 5803 5803 5803 5802 5802 5802 5801 5800 5799 5798 5797 5796 5794 5793 5791
5777 5778 5779 5779 5780 5781 5782 5783 5784 5785 5786 5787 5789 5790 5791 5792 5792 5793 5794 5795 5796 5797 5798 5798 5798 5798 5799 5799 5799 5799 5798 5798 5798 5797 5797 5796 5795 5794 5793 5791 5790 5789 5787
5769 5770 5771 5772 5773 5774 5775 5776 5777 5778 5779 5781 5782 5784 5785 5786 5787 5788 5789 5790 5791 5792 5792 5793 5794 5794 5794 5794 5794 5794 5794 5794 5793 5793 5792 5791 5790 5789 5788 5787 5786 5784 5782
5762 5762 5763 5764 5765 5766 5767 5768 5770 5771 5772 5774 5775 5777 5779 5780 5781 5782 5783 5784 5785 5786 5787 5787 5788 5788 5788 5789 5789 5789 5789 5788 5788 5788 5787 5786 5785 5784 5783 5782 5781 5779 5778
5754 5754 5755 5756 5757 5758 5759 5761 5762 5764 5765 5767 5768 5770 5772 5773 5774 5775 5776 5778 5779 5780 5780 5781 5781 5782 5782 5782 5783 5783 5783 5783 5782 5782 5782 5781 5780 5779 5778 5777 5776 5774 5773